When you browse on this site, cookies collect data to enhance your experience and personalize the content and advertising you see.
Visit our Privacy Policy to learn more. By continuing to use the site, you agree to this use of cookies and data.
  • In Lithuania
  • List of Countries
  • For 7 days
  • Water Temperature
  • Satellite Maps
  • Weather Map
  • Weather Widgets
  • user-avatar
    Login

    Hourly Weather Tucupita

    Today, 20 November, Tuesday

    Time Temperature Precipitation Wind Pressure Humidity
    00:00 +25°C° 0 mm 1 mps 758 mmHg 97%
    01:00 +25°C° 0 mm 1 mps 758 mmHg 98%
    02:00 +25°C° 0 mm 1 mps 757 mmHg 98%
    03:00 +25°C° 0.1 mm 1 mps 757 mmHg 98%
    04:00 +23°C° 0.1 mm 0 mps 757 mmHg 98%
    05:00 +23°C° 0.1 mm 0 mps 757 mmHg 98%
    06:00 +26°C° 0.1 mm 1 mps 758 mmHg 94%
    07:00 +27°C° 0.1 mm 1 mps 758 mmHg 90%
    08:00 +28°C° 0.1 mm 2 mps 759 mmHg 86%
    09:00 +30°C° 0.1 mm 2 mps 759 mmHg 76%
    10:00 +31°C° 0.1 mm 2 mps 759 mmHg 67%
    11:00 +34°C° 0.1 mm 2 mps 759 mmHg 57%
    12:00 +34°C° 0.7 mm 2 mps 758 mmHg 63%
    13:00 +32°C° 0.7 mm 2 mps 757 mmHg 68%
    14:00 +31°C° 0.7 mm 3 mps 756 mmHg 74%
    15:00 +30°C° 0.9 mm 2 mps 756 mmHg 78%
    16:00 +29°C° 0.9 mm 2 mps 756 mmHg 83%
    17:00 +28°C° 0.9 mm 2 mps 756 mmHg 87%
    18:00 +27°C° 0 mm 2 mps 756 mmHg 90%
    19:00 +27°C° 0 mm 2 mps 757 mmHg 92%
    20:00 +26°C° 0 mm 2 mps 758 mmHg 95%
    21:00 +26°C° 0 mm 1 mps 758 mmHg 95%
    22:00 +25°C° 0 mm 1 mps 758 mmHg 96%
    23:00 +25°C° 0 mm 1 mps 759 mmHg 97%

    Tomorrow, 21 November, Wednesday

    Time Temperature Precipitation Wind Pressure Humidity
    00:00 +25°C° 0 mm 1 mps 758 mmHg 97%
    01:00 +25°C° 0 mm 1 mps 758 mmHg 98%
    02:00 +25°C° 0 mm 1 mps 758 mmHg 98%
    03:00 +25°C° 0.1 mm 1 mps 758 mmHg 98%
    04:00 +25°C° 0.1 mm 1 mps 758 mmHg 98%
    05:00 +23°C° 0.1 mm 0 mps 758 mmHg 98%
    06:00 +25°C° 0.1 mm 1 mps 758 mmHg 96%
    07:00 +26°C° 0.1 mm 1 mps 759 mmHg 93%
    08:00 +27°C° 0.1 mm 1 mps 759 mmHg 90%
    09:00 +29°C° 0.4 mm 2 mps 759 mmHg 84%
    10:00 +30°C° 0.4 mm 2 mps 759 mmHg 78%
    11:00 +31°C° 0.4 mm 2 mps 759 mmHg 71%
    12:00 +31°C° 0.6 mm 2 mps 758 mmHg 74%
    13:00 +31°C° 0.6 mm 2 mps 757 mmHg 76%
    14:00 +31°C° 0.6 mm 2 mps 757 mmHg 78%
    15:00 +30°C° 0.5 mm 2 mps 756 mmHg 81%
    16:00 +29°C° 0.5 mm 2 mps 756 mmHg 84%
    17:00 +28°C° 0.5 mm 2 mps 756 mmHg 88%
    18:00 +27°C° 0 mm 2 mps 757 mmHg 91%
    19:00 +26°C° 0 mm 1 mps 757 mmHg 93%
    20:00 +26°C° 0 mm 1 mps 758 mmHg 96%
    21:00 +25°C° 0 mm 1 mps 758 mmHg 96%
    22:00 +25°C° 0 mm 1 mps 758 mmHg 97%
    23:00 +25°C° 0 mm 1 mps 758 mmHg 97%

    Day after tomorrow, 22 November, Thursday

    Time Temperature Precipitation Wind Pressure Humidity
    00:00 +25°C° 0 mm 1 mps 758 mmHg 98%
    01:00 +25°C° 0 mm 1 mps 758 mmHg 98%
    02:00 +24°C° 0 mm 1 mps 757 mmHg 98%
    03:00 +22°C° 0 mm 0 mps 757 mmHg 98%
    04:00 +22°C° 0 mm 0 mps 757 mmHg 98%
    05:00 +22°C° 0 mm 0 mps 757 mmHg 98%
    06:00 +23°C° 0 mm 0 mps 758 mmHg 94%
    07:00 +26°C° 0 mm 1 mps 758 mmHg 91%
    08:00 +27°C° 0 mm 1 mps 758 mmHg 87%
    09:00 +29°C° 0.2 mm 1 mps 758 mmHg 81%
    10:00 +30°C° 0.2 mm 2 mps 758 mmHg 75%
    11:00 +31°C° 0.2 mm 2 mps 758 mmHg 69%
    12:00 +31°C° 0.7 mm 2 mps 758 mmHg 72%
    13:00 +31°C° 0.7 mm 2 mps 757 mmHg 75%
    14:00 +30°C° 0.7 mm 2 mps 756 mmHg 78%
    15:00 +30°C° 0.1 mm 2 mps 755 mmHg 76%
    16:00 +30°C° 0.1 mm 1 mps 755 mmHg 75%
    17:00 +30°C° 0.1 mm 1 mps 755 mmHg 74%
    18:00 +29°C° 0 mm 1 mps 755 mmHg 79%
    19:00 +27°C° 0 mm 1 mps 756 mmHg 84%
    20:00 +26°C° 0 mm 1 mps 757 mmHg 89%
    21:00 +26°C° 0 mm 1 mps 757 mmHg 92%
    22:00 +25°C° 0 mm 1 mps 757 mmHg 94%
    23:00 +25°C° 0 mm 1 mps 757 mmHg 96%

    23 November, Friday

    Time Temperature Precipitation Wind Pressure Humidity
    00:00 +24°C° 0 mm 1 mps 757 mmHg 97%
    01:00 +24°C° 0 mm 1 mps 757 mmHg 97%
    02:00 +22°C° 0 mm 0 mps 756 mmHg 98%
    03:00 +22°C° 0 mm 0 mps 756 mmHg 98%
    04:00 +22°C° 0 mm 0 mps 757 mmHg 98%
    05:00 +22°C° 0 mm 0 mps 757 mmHg 98%
    06:00 +23°C° 0 mm 0 mps 757 mmHg 93%
    07:00 +26°C° 0 mm 1 mps 757 mmHg 88%
    08:00 +27°C° 0 mm 1 mps 758 mmHg 83%
    09:00 +29°C° 0.1 mm 1 mps 758 mmHg 75%
    10:00 +31°C° 0.1 mm 2 mps 758 mmHg 67%
    11:00 +32°C° 0.1 mm 2 mps 758 mmHg 59%
    12:00 +34°C° 0.4 mm 2 mps 757 mmHg 59%
    13:00 +34°C° 0.4 mm 2 mps 756 mmHg 60%
    14:00 +34°C° 0.4 mm 2 mps 755 mmHg 60%
    15:00 +32°C° 0.1 mm 2 mps 755 mmHg 63%
    16:00 +31°C° 0.1 mm 2 mps 754 mmHg 66%
    17:00 +31°C° 0.1 mm 2 mps 754 mmHg 69%
    18:00 +29°C° 0 mm 2 mps 755 mmHg 75%
    19:00 +28°C° 0 mm 2 mps 755 mmHg 82%
    20:00 +26°C° 0 mm 1 mps 756 mmHg 88%
    21:00 +26°C° 0 mm 1 mps 756 mmHg 91%
    22:00 +25°C° 0 mm 1 mps 757 mmHg 94%
    23:00 +25°C° 0 mm 1 mps 757 mmHg 97%

    24 November, Saturday

    Time Temperature Precipitation Wind Pressure Humidity
    00:00 +25°C° 0 mm 1 mps 757 mmHg 97%
    01:00 +24°C° 0 mm 1 mps 756 mmHg 98%
    02:00 +24°C° 0 mm 1 mps 756 mmHg 99%
    03:00 +22°C° 0 mm 0 mps 756 mmHg 99%
    04:00 +22°C° 0 mm 0 mps 756 mmHg 99%
    05:00 +22°C° 0 mm 0 mps 756 mmHg 99%
    06:00 +23°C° 0 mm 0 mps 757 mmHg 94%
    07:00 +26°C° 0 mm 1 mps 757 mmHg 89%
    08:00 +27°C° 0 mm 1 mps 758 mmHg 85%
    09:00 +29°C° 0 mm 1 mps 758 mmHg 77%
    10:00 +31°C° 0 mm 2 mps 758 mmHg 69%
    11:00 +34°C° 0 mm 2 mps 758 mmHg 61%
    12:00 +32°C° 0.6 mm 2 mps 757 mmHg 66%
    13:00 +32°C° 0.6 mm 2 mps 756 mmHg 70%
    14:00 +32°C° 0.6 mm 2 mps 755 mmHg 75%
    15:00 +31°C° 0.9 mm 2 mps 755 mmHg 79%
    16:00 +30°C° 0.9 mm 2 mps 755 mmHg 84%
    17:00 +29°C° 0.9 mm 2 mps 755 mmHg 88%
    18:00 +28°C° 0 mm 2 mps 755 mmHg 91%
    19:00 +27°C° 0 mm 1 mps 756 mmHg 94%
    20:00 +26°C° 0 mm 1 mps 757 mmHg 97%
    21:00 +26°C° 0 mm 1 mps 757 mmHg 97%
    22:00 +26°C° 0 mm 1 mps 757 mmHg 98%
    23:00 +25°C° 0 mm 1 mps 757 mmHg 98%

    25 November, Sunday

    Time Temperature Precipitation Wind Pressure Humidity
    00:00 +25°C° 0 mm 1 mps 757 mmHg 98%
    01:00 +25°C° 0 mm 1 mps 757 mmHg 98%
    02:00 +25°C° 0 mm 1 mps 756 mmHg 99%
    03:00 +23°C° 0 mm 0 mps 756 mmHg 99%
    04:00 +23°C° 0 mm 0 mps 757 mmHg 99%
    05:00 +23°C° 0 mm 0 mps 757 mmHg 99%
    06:00 +24°C° 0 mm 0 mps 757 mmHg 96%
    07:00 +27°C° 0 mm 1 mps 758 mmHg 92%
    08:00 +28°C° 0 mm 1 mps 758 mmHg 89%
    09:00 +29°C° 0.5 mm 1 mps 758 mmHg 85%
    10:00 +30°C° 0.5 mm 1 mps 758 mmHg 81%
    11:00 +31°C° 0.5 mm 2 mps 758 mmHg 77%
    12:00 +31°C° 1 mm 2 mps 757 mmHg 79%
    13:00 +31°C° 1 mm 2 mps 756 mmHg 80%
    14:00 +31°C° 1 mm 2 mps 756 mmHg 81%
    15:00 +30°C° 0.5 mm 2 mps 756 mmHg 84%
    16:00 +29°C° 0.5 mm 2 mps 755 mmHg 87%
    17:00 +29°C° 0.5 mm 2 mps 755 mmHg 89%
    18:00 +28°C° 0.3 mm 2 mps 756 mmHg 92%
    19:00 +27°C° 0.3 mm 1 mps 756 mmHg 95%
    20:00 +26°C° 0.3 mm 1 mps 757 mmHg 98%
    21:00 +26°C° 0.3 mm 1 mps 757 mmHg 98%
    22:00 +26°C° 0.3 mm 1 mps 757 mmHg 98%
    23:00 +25°C° 0.3 mm 1 mps 758 mmHg 98%
    Show more